Location: Unspecified
(47.9110°N, 14.3980°E)
Time: 15:57:03
(UTC+00:00)

SL-16 R/B - Pass Details

Date: 06 August 2020
Orbit: 843 x 845 km, 71.0° (Epoch: 18 September)

Event Time Altitude Azimuth Distance (km) Brightness Sun altitude
Rises 22:03:32 0° 330° (NNW) 3,416 6.7 -24.1°
Reaches altitude 10° 22:06:00 10° 327° (NNW) 2,477 5.6 -24.2°
Maximum altitude 22:11:38 65° 247° (WSW) 929 2.3 -24.5°
Enters shadow 22:12:27 57° 205° (SSW) 989 2.2 -24.5°
